Location: ?p Thanh B�nh
(16.5833°N, 107.5333°E)
Time: 05:49:22
(UTC+00:00)

Cosmos 2098 Rocket - Pass Details

Date: 29 October 2020
Orbit: 366 x 1184 km, 82.9° (Epoch: 27 November)

Event Time Altitude Azimuth Distance (km) Brightness Sun altitude
Rises 22:13:48 0° 191° (S) 3,971 7.2 -8.5°
Reaches altitude 10° 22:16:39 10° 194° (SSW) 2,942 6.5 -7.9°
Maximum altitude 22:23:24 61° 273° (W) 1,087 4.0 -6.3°
Drops below altitude 10° 22:29:00 10° 354° (N) 2,444 5.9 -5.0°
Sets 22:31:12 0° 358° (N) 3,258 6.6 -4.5°
